GW3853 Weather Reports


time (UTC)temp
C
wind
direction
speed
KPH
gust
KPH
rain 1hr
cm
rain 24hr
cm
rain mn
cm
humidity
%
barometer
mb
20260508004534 9 340 0.0 3.2 0.00 0.51 0.15 43 1007.0
20260508003025 9 355 0.0 3.2 0.00 0.51 0.15 46 1006.9
20260508001517 10 147 0.0 3.2 0.00 0.51 0.15 46 1006.5
20260508000004 10 153 0.0 3.2 0.00 0.53 0.15 46 1006.4
20260507234503 10 356 0.0 4.8 0.00 0.53 0.15 42 1006.0
20260507233004 11 357 0.0 9.7 0.00 0.53 0.15 44 1005.8
20260507231510 11 123 0.0 4.8 0.00 0.58 0.15 44 1005.6
20260507230013 11 112 1.6 4.8 0.00 0.58 0.15 44 1005.5
20260507224505 11 11 1.6 4.8 0.00 0.58 0.15 41 1005.3
20260507223004 12 182 3.2 6.4 0.00 0.61 0.15 39 1005.0
20260507221513 12 36 1.6 6.4 0.00 0.61 0.15 44 1004.9
20260507220013 12 13 1.6 3.2 0.00 0.61 0.15 45 1004.6
20260507214516 13 22 1.6 6.4 0.00 0.64 0.15 43 1004.7
20260507213004 13 321 1.6 12.9 0.00 0.64 0.15 36 1004.5
20260507211508 13 287 0.0 8.0 0.00 0.64 0.15 37 1004.4
20260507210023 13 116 3.2 12.9 0.00 0.66 0.15 36 1004.2
20260507204514 13 167 0.0 11.3 0.00 0.71 0.15 1004.0
20260507203018 15 86 1.6 16.1 0.00 0.74 0.15 36 1003.8
20260507201508 15 53 1.6 4.8 0.00 0.79 0.15 40 1003.7
20260507200010 16 1 3.2 12.9 0.00 0.81 0.15 32 1003.7
20260507194511 16 3 3.2 11.3 0.00 0.81 0.15 33 1003.6
20260507193019 16 8 1.6 14.5 0.00 0.86 0.15 37 1003.7
20260507191520 16 355 4.8 11.3 0.00 0.89 0.15 34 1003.6
20260507190005 16 14 4.8 14.5 0.00 0.94 0.15 38 1003.6
20260507184515 16 52 4.8 14.5 0.00 1.02 0.15 36 1003.8
20260507183022 15 352 3.2 12.9 0.00 1.12 0.15 42 1004.0
20260507181519 13 350 4.8 17.7 0.00 1.17 0.15 48 1004.2
20260507180021 14 359 4.8 12.9 0.00 1.19 0.15 50 1004.4
20260507174507 15 334 3.2 9.7 0.00 1.22 0.15 47 1004.4
20260507173011 14 77 1.6 19.3 0.00 1.22 0.15 51 1004.3
20260507171516 13 338 4.8 11.3 0.00 1.22 0.15 50 1004.4
20260507170022 14 356 4.8 11.3 0.00 1.22 0.15 50 1004.4
20260507164526 14 175 0.0 12.9 0.00 1.22 0.15 48 1004.6
20260507163009 15 13 4.8 11.3 0.00 1.22 0.15 57 1004.7
20260507161517 13 359 4.8 8.0 0.00 1.22 0.15 57 1004.7
20260507160024 13 31 1.6 14.5 0.00 1.24 0.15 60 1005.0
20260507154530 13 22 1.6 6.4 0.00 1.24 0.15 59 1005.3
20260507153036 13 39 1.6 6.4 0.00 1.24 0.15 61 1005.4
20260507151505 13 22 0.0 3.2 0.00 1.24 0.15 61 1005.2
20260507150004 13 51 1.6 4.8 0.00 1.24 0.15 1005.2
20260507144506 13 18 1.6 6.4 0.00 1.24 0.15 1005.4
20260507143004 12 39 3.2 4.8 0.00 1.24 0.15 64 1005.4
20260507141504 12 160 1.6 6.4 0.00 1.24 0.15 66 1005.7
20260507134505 12 15 0.0 6.4 0.00 1.24 0.15 68 1005.9
20260507133004 11 275 1.6 4.8 0.00 1.24 0.15 73 1005.9
20260507131516 11 31 1.6 8.0 0.00 1.24 0.15 73 1006.0
20260507130012 10 342 3.2 8.0 0.00 1.24 0.15 75 1006.0
20260507124511 10 42 1.6 4.8 0.00 1.24 0.15 76 1006.0
20260507123005 9 1 3.2 11.3 0.00 1.24 0.15 76 1006.1
20260507121509 9 6 3.2 12.9 0.00 1.24 0.15 76 1006.2
20260507120018 8 25 1.6 9.7 0.00 1.24 0.15 80 1006.1
20260507114509 8 59 1.6 4.8 0.00 1.24 0.15 79 1006.6
20260507111504 8 252 3.2 9.7 0.00 1.24 0.15 80 1006.2
20260507110010 7 94 1.6 12.9 0.00 1.24 0.15 81 1006.6
20260507104513 7 30 0.0 3.2 0.00 1.24 0.15 84 1006.4
20260507103026 -17 0.0 0.0 0.00 1.24 0.15 1006.2
20260507101515 -17 0.0 0.0 0.00 1.24 0.15 1006.2
20260507100012 -17 0.0 0.0 0.00 1.24 0.15 1006.2
20260507094516 -17 0.0 0.0 0.00 1.24 0.15 1005.7
20260507093014 -17 0.0 0.0 0.00 1.24 0.15 1006.0
20260507091524 -17 0.0 0.0 0.00 1.24 0.15 1006.0
20260507090021 -17 5 0.0 6.4 0.00 1.24 0.15 1006.2
20260507084511 6 334 0.0 3.2 0.00 1.24 0.15 92 1006.4
20260507083018 6 14 0.0 1.6 0.00 1.24 0.15 92 1005.9
20260507081515 6 19 0.0 3.2 0.00 1.24 0.15 93 1005.6
20260507080015 6 19 0.0 4.8 0.00 1.24 0.15 92 1006.0
20260507074510 7 216 0.0 3.2 0.00 1.24 0.15 92 1006.2
20260507073013 7 208 0.0 6.4 0.00 1.24 0.15 90 1006.2
20260507071548 7 359 3.2 6.4 0.00 1.24 0.15 91 1005.8
20260507070020 7 14 1.6 4.8 0.00 1.24 0.15 92 1005.6
20260507064522 7 42 0.0 3.2 0.00 1.24 0.15 94 1005.4
20260507063012 7 63 3.2 11.3 0.00 1.24 0.15 92 1005.2
20260507061503 7 1 1.6 6.4 0.00 1.24 0.15 95 1005.2
20260507060004 7 30 0.0 3.2 0.00 1.24 0.15 95 1005.2
20260507054504 8 30 0.0 3.2 0.05 1.24 0.15 95 1004.8
20260507053013 8 30 0.0 3.2 0.10 1.24 0.15 95 1004.7
20260507051527 8 75 0.0 3.2 0.13 1.24 0.15 95 1005.1
20260507050003 8 354 1.6 6.4 0.15 1.24 0.15 94 1005.0
20260507044505 8 250 0.0 9.7 0.10 1.19 0.10 94 1005.0
20260507043011 8 15 1.6 6.4 0.08 1.14 0.05 93 1005.3
20260507041512 8 2 3.2 11.3 0.13 1.12 0.03 93 1005.3
20260507040017 9 1 0.0 8.0 0.18 1.09 0.00 94 1005.2
20260507034532 9 326 3.2 8.0 0.20 1.09 1.09 93 1005.2
20260507033014 10 51 1.6 6.4 0.18 1.07 1.07 94 1005.0
20260507031508 10 96 0.0 8.0 0.10 0.99 0.99 95 1004.6
20260507030024 11 1 1.6 9.7 0.03 0.91 0.91 94 1004.5
20260507024517 11 143 0.0 3.2 0.03 0.89 0.89 95 1004.3
20260507023026 11 107 0.0 3.2 0.05 0.89 0.89 95 1004.0
20260507021506 11 244 0.0 4.8 0.15 0.89 0.89 95 1004.2
20260507020017 11 340 0.0 4.8 0.15 0.89 0.89 95 1004.1
20260507014516 12 359 0.0 6.4 0.13 0.86 0.86 96 1004.2
20260507013021 12 160 0.0 3.2 0.10 0.84 0.84 97 1004.4
20260507011507 12 4 1.6 3.2 0.00 0.74 0.74 97 1004.3
20260507010016 12 188 0.0 3.2 0.03 0.74 0.74 97 1004.0